Regional Weather Roundup
Issued by NWS

Home | Current Version | Previous Version | Graphics & Text | Print | Product List | Glossary On
Versions: 1 2 3 4 5 6 7 8 9 10 11 12 13 14 15 16 17 18 19 20 21 22 23 24 25 26 27 28 29 30 31 32 33 34 35 36 37 38 39 40 41 42 43 44 45 46 47 48 49 50
071
ASUS45 KSLC 210810
RWRUT

UTAH REGIONAL WEATHER ROUNDUP
NATIONAL WEATHER SERVICE SALT LAKE CITY UT
200 AM MDT FRI JUL 21 2017

UTZ001>011-023>025-210900-

NORTHERN UTAH

CITY           SKY/WX    TMP DP  RH WIND       PRES   REMARKS
BRIGHAM CITY   CLOUDY    79  38  22 CALM      30.01R
HILL AFB       MOCLDY    77  53  42 E8        30.05R
LOGAN          CLOUDY    71  61  70 SW5       30.04S
OGDEN          MOCLDY    79  54  41 SE12      30.00R
SALT LAKE CITY MOCLDY    85  51  31 S20G28    29.98S
TOOELE VALLEY  CLOUDY    81  48  32 W14       30.01R
WENDOVER       PTCLDY    78  45  30 NE7       30.00F
HEBER CITY     MOCLDY    64  52  63 CALM      30.12F
WEST JORDAN    MOCLDY    77  62  59 S17       30.03R

$$

UTZ011>015-024>027-210900-

CENTRAL/NORTHEAST UTAH

CITY           SKY/WX    TMP DP  RH WIND       PRES   REMARKS
PROVO AIRPORT  MOCLDY    76  53  44 S16       30.05F
MOAB/CANYONLAN MOCLDY    71  63  75 N8        30.08F
DELTA          CLOUDY    75  50  41 SE23      30.05F
PRICE          MOCLDY    69  52  54 NE7       30.20F
ROOSEVELT      PTCLDY    68  54  60 CALM      30.16S
VERNAL         CLOUDY    71  54  54 NW6       30.16R

$$

UTZ013>016-019>022-027-210900-

SOUTHERN UTAH

CITY           SKY/WX    TMP DP  RH WIND       PRES   REMARKS
BRYCE CANYON   PTCLDY    55  53  93 CALM      30.34F
CEDAR CITY     MOCLDY    70  46  42 S7        30.16F
MILFORD        PTCLDY    72  53  51 SE10      30.11S
ST GEORGE      PTSUNNY   84  51  31 SE9       29.96F
HANKSVILLE     MOCLDY    70  55  60 CALM      30.11F
BLANDING       CLOUDY    63  60  88 NE5       30.29F

$$

REGIONAL REPORTS     COLORADO/ARIZONA

CITY           SKY/WX    TMP DP  RH WIND       PRES   REMARKS
CRAIG, CO      CLOUDY    64  52  64 SE6       30.25R
GRAND JUNCTION CLOUDY    73  53  49 CALM      30.11F
RIFLE, CO      CLEAR     66  55  67 CALM      30.19S
MONTROSE, CO   CLEAR     66  52  60 SE10      30.22F
CORTEZ, CO     PTCLDY    61  59  93 E6        30.24F
COLORADO CITY    N/A     68  59  73 CALM      30.16S
PAGE, AZ       CLOUDY    76  59  55 SE16      30.09R
GRAND CANYON   CLOUDY    63  58  83 CALM      30.28F
KINGMAN, AZ    CLEAR     76  59  55 SE13      30.04S
FLAGSTAFF, AZ  MOCLDY    58  55  90 CALM      30.31F

$$

REGIONAL REPORTS    NEVADA/IDAHO/WYOMING

CITY           SKY/WX    TMP DP  RH WIND       PRES   REMARKS
LAS VEGAS, NV  MOCLDY    89  56  32 S7        29.87F
ELY, NY        PTCLDY    60  53  77 S8        30.20S
ELKO, NV       CLEAR     64  22  20 CALM      30.12R
POCATELLO, ID  CLOUDY    70  36  28 S12       30.07R
BURLEY, ID     PTCLDY    61  45  55 VRB3      30.04S
FORT BRIDGER,  PTSUNNY   65  51  61 NW3       30.27F
EVANSTON, WY   CLOUDY    67  50  54 CALM      30.24F
ROCK SPRINGS,  CLOUDY    61  53  75 VRB7      30.24S
KEMMERER, WY     N/A    N/A N/A N/A N5        30.26F

$$




USA.gov is the U.S. government's official web portal to all federal, state and local government web resources and services.